• In Slovakia
  • List of Countries
  • For 7 days
  • Water Temperature
  • Satellite Maps
  • Weather Map
  • Weather Widgets
  • user-avatar
    Login

    Hourly Weather Wilkupie

    Today, 19 September, Wednesday

    Time Temperature Precipitation Wind Pressure Humidity
    00:00 +14°C° 0 mm 3 mps 741 mmHg 80%
    01:00 +14°C° 0 mm 3 mps 741 mmHg 81%
    02:00 +14°C° 0 mm 3 mps 740 mmHg 84%
    03:00 +14°C° 0 mm 3 mps 740 mmHg 85%
    04:00 +14°C° 0 mm 3 mps 740 mmHg 86%
    05:00 +13°C° 0 mm 3 mps 740 mmHg 87%
    06:00 +14°C° 0 mm 3 mps 740 mmHg 84%
    07:00 +15°C° 0 mm 4 mps 740 mmHg 82%
    08:00 +17°C° 0 mm 4 mps 740 mmHg 79%
    09:00 +19°C° 0 mm 4 mps 740 mmHg 74%
    10:00 +21°C° 0 mm 4 mps 740 mmHg 69%
    11:00 +22°C° 0 mm 4 mps 740 mmHg 65%
    12:00 +25°C° 0 mm 4 mps 740 mmHg 61%
    13:00 +26°C° 0 mm 4 mps 741 mmHg 58%
    14:00 +27°C° 0 mm 4 mps 741 mmHg 55%
    15:00 +26°C° 0 mm 4 mps 741 mmHg 58%
    16:00 +26°C° 0 mm 3 mps 741 mmHg 61%
    17:00 +25°C° 0 mm 3 mps 740 mmHg 64%
    18:00 +23°C° 0 mm 2 mps 741 mmHg 72%
    19:00 +20°C° 0 mm 2 mps 741 mmHg 80%
    20:00 +18°C° 0 mm 2 mps 741 mmHg 88%
    21:00 +17°C° 0 mm 2 mps 741 mmHg 89%
    22:00 +16°C° 0 mm 1 mps 741 mmHg 90%
    23:00 +15°C° 0 mm 1 mps 741 mmHg 91%

    Tomorrow, 20 September, Thursday

    Time Temperature Precipitation Wind Pressure Humidity
    00:00 +15°C° 0 mm 1 mps 741 mmHg 90%
    01:00 +15°C° 0 mm 1 mps 741 mmHg 90%
    02:00 +15°C° 0 mm 1 mps 742 mmHg 89%
    03:00 +15°C° 0 mm 1 mps 741 mmHg 89%
    04:00 +15°C° 0 mm 1 mps 741 mmHg 89%
    05:00 +15°C° 0 mm 1 mps 741 mmHg 90%
    06:00 +16°C° 0 mm 1 mps 741 mmHg 88%
    07:00 +16°C° 0 mm 2 mps 742 mmHg 86%
    08:00 +17°C° 0 mm 2 mps 742 mmHg 83%
    09:00 +20°C° 0 mm 2 mps 742 mmHg 76%
    10:00 +23°C° 0 mm 2 mps 742 mmHg 68%
    11:00 +25°C° 0 mm 3 mps 742 mmHg 61%
    12:00 +26°C° 0 mm 3 mps 742 mmHg 57%
    13:00 +27°C° 0 mm 3 mps 742 mmHg 53%
    14:00 +27°C° 0 mm 3 mps 742 mmHg 50%
    15:00 +27°C° 0.1 mm 3 mps 742 mmHg 54%
    16:00 +26°C° 0.1 mm 2 mps 741 mmHg 58%
    17:00 +26°C° 0.1 mm 2 mps 741 mmHg 62%
    18:00 +24°C° 0.4 mm 2 mps 741 mmHg 69%
    19:00 +21°C° 0.4 mm 2 mps 741 mmHg 76%
    20:00 +20°C° 0.4 mm 1 mps 741 mmHg 82%
    21:00 +19°C° 0.3 mm 1 mps 741 mmHg 84%
    22:00 +19°C° 0.3 mm 1 mps 741 mmHg 86%
    23:00 +18°C° 0.3 mm 1 mps 741 mmHg 88%

    Day after tomorrow, 21 September, Friday

    Time Temperature Precipitation Wind Pressure Humidity
    00:00 +18°C° 0 mm 1 mps 741 mmHg 89%
    01:00 +16°C° 0 mm 1 mps 741 mmHg 89%
    02:00 +16°C° 0 mm 1 mps 741 mmHg 90%
    03:00 +16°C° 0 mm 1 mps 741 mmHg 90%
    04:00 +16°C° 0 mm 2 mps 741 mmHg 91%
    05:00 +16°C° 0 mm 2 mps 740 mmHg 91%
    06:00 +17°C° 0 mm 2 mps 740 mmHg 88%
    07:00 +17°C° 0 mm 3 mps 740 mmHg 86%
    08:00 +18°C° 0 mm 3 mps 740 mmHg 83%
    09:00 +20°C° 0 mm 4 mps 740 mmHg 75%
    10:00 +22°C° 0 mm 4 mps 740 mmHg 68%
    11:00 +25°C° 0 mm 5 mps 740 mmHg 60%
    12:00 +25°C° 0 mm 5 mps 739 mmHg 56%
    13:00 +26°C° 0 mm 6 mps 739 mmHg 51%
    14:00 +27°C° 0 mm 6 mps 739 mmHg 46%
    15:00 +26°C° 0 mm 6 mps 738 mmHg 49%
    16:00 +25°C° 0 mm 5 mps 737 mmHg 51%
    17:00 +23°C° 0 mm 5 mps 737 mmHg 53%
    18:00 +22°C° 0 mm 5 mps 736 mmHg 54%
    19:00 +21°C° 0 mm 5 mps 736 mmHg 55%
    20:00 +20°C° 0 mm 6 mps 735 mmHg 56%
    21:00 +20°C° 0 mm 6 mps 735 mmHg 56%
    22:00 +20°C° 0 mm 6 mps 734 mmHg 55%
    23:00 +20°C° 0 mm 6 mps 734 mmHg 55%

    22 September, Saturday

    Time Temperature Precipitation Wind Pressure Humidity
    00:00 +20°C° 0 mm 6 mps 734 mmHg 58%
    01:00 +19°C° 0 mm 6 mps 734 mmHg 61%
    02:00 +17°C° 0 mm 5 mps 734 mmHg 65%
    03:00 +15°C° 0.3 mm 5 mps 735 mmHg 71%
    04:00 +14°C° 0.3 mm 5 mps 735 mmHg 77%
    05:00 +12°C° 0.3 mm 5 mps 736 mmHg 83%
    06:00 +10°C° 0.5 mm 5 mps 736 mmHg 84%
    07:00 +10°C° 0.5 mm 5 mps 737 mmHg 85%
    08:00 +9°C° 0.5 mm 5 mps 738 mmHg 85%
    09:00 +9°C° 0 mm 5 mps 738 mmHg 81%
    10:00 +10°C° 0 mm 5 mps 738 mmHg 77%
    11:00 +10°C° 0 mm 6 mps 739 mmHg 73%
    12:00 +11°C° 0 mm 6 mps 739 mmHg 70%
    13:00 +11°C° 0 mm 6 mps 739 mmHg 67%
    14:00 +11°C° 0 mm 6 mps 739 mmHg 65%
    15:00 +12°C° 0.1 mm 5 mps 739 mmHg 65%
    16:00 +12°C° 0.1 mm 4 mps 739 mmHg 66%
    17:00 +12°C° 0.1 mm 4 mps 739 mmHg 67%
    18:00 +11°C° 0.1 mm 3 mps 739 mmHg 71%
    19:00 +10°C° 0.1 mm 3 mps 739 mmHg 76%
    20:00 +9°C° 0.1 mm 3 mps 739 mmHg 80%
    21:00 +9°C° 0 mm 3 mps 739 mmHg 81%
    22:00 +8°C° 0 mm 3 mps 739 mmHg 82%
    23:00 +8°C° 0 mm 3 mps 739 mmHg 83%

    23 September, Sunday

    Time Temperature Precipitation Wind Pressure Humidity
    00:00 +8°C° 0 mm 3 mps 739 mmHg 83%
    01:00 +8°C° 0 mm 3 mps 739 mmHg 84%
    02:00 +6°C° 0 mm 4 mps 739 mmHg 85%
    03:00 +6°C° 0 mm 4 mps 739 mmHg 86%
    04:00 +6°C° 0 mm 4 mps 739 mmHg 87%
    05:00 +6°C° 0 mm 4 mps 739 mmHg 87%
    06:00 +7°C° 0 mm 5 mps 739 mmHg 85%
    07:00 +7°C° 0 mm 5 mps 739 mmHg 82%
    08:00 +8°C° 0 mm 6 mps 739 mmHg 80%
    09:00 +9°C° 0.1 mm 6 mps 739 mmHg 75%
    10:00 +10°C° 0.1 mm 6 mps 739 mmHg 70%
    11:00 +11°C° 0.1 mm 6 mps 739 mmHg 65%
    12:00 +11°C° 0.2 mm 7 mps 739 mmHg 62%
    13:00 +12°C° 0.2 mm 7 mps 739 mmHg 59%
    14:00 +12°C° 0.2 mm 7 mps 739 mmHg 56%
    15:00 +13°C° 0 mm 6 mps 739 mmHg 58%
    16:00 +13°C° 0 mm 5 mps 738 mmHg 59%
    17:00 +12°C° 0 mm 4 mps 738 mmHg 60%
    18:00 +11°C° 0 mm 3 mps 738 mmHg 66%
    19:00 +9°C° 0 mm 2 mps 738 mmHg 71%
    20:00 +8°C° 0 mm 2 mps 738 mmHg 77%
    21:00 +8°C° 0 mm 2 mps 737 mmHg 75%
    22:00 +8°C° 0 mm 2 mps 737 mmHg 73%
    23:00 +8°C° 0 mm 2 mps 736 mmHg 72%

    24 September, Monday

    Time Temperature Precipitation Wind Pressure Humidity
    00:00 +8°C° 0 mm 3 mps 736 mmHg 69%
    01:00 +8°C° 0 mm 4 mps 735 mmHg 66%
    02:00 +8°C° 0 mm 4 mps 734 mmHg 63%
    03:00 +8°C° 0 mm 5 mps 732 mmHg 66%
    04:00 +8°C° 0 mm 6 mps 731 mmHg 69%
    05:00 +8°C° 0 mm 7 mps 730 mmHg 72%
    06:00 +8°C° 1.1 mm 7 mps 729 mmHg 77%
    07:00 +7°C° 1.1 mm 8 mps 727 mmHg 82%
    08:00 +7°C° 1.1 mm 8 mps 726 mmHg 87%
    09:00 +7°C° 1.1 mm 8 mps 725 mmHg 88%
    10:00 +7°C° 1.1 mm 8 mps 725 mmHg 88%
    11:00 +7°C° 1.1 mm 8 mps 724 mmHg 89%
    12:00 +9°C° 1.1 mm 7 mps 723 mmHg 87%
    13:00 +10°C° 1.1 mm 6 mps 723 mmHg 85%
    14:00 +11°C° 1.1 mm 6 mps 722 mmHg 82%
    15:00 +12°C° 0.6 mm 5 mps 722 mmHg 84%
    16:00 +11°C° 0.6 mm 4 mps 721 mmHg 87%
    17:00 +11°C° 0.6 mm 3 mps 721 mmHg 89%
    18:00 +12°C° 1 mm 2 mps 721 mmHg 91%
    19:00 +10°C° 1 mm 2 mps 721 mmHg 94%
    20:00 +11°C° 1 mm 1 mps 720 mmHg 96%
    21:00 +10°C° 0.6 mm 2 mps 721 mmHg 96%
    22:00 +10°C° 0.6 mm 3 mps 721 mmHg 96%
    23:00 +9°C° 0.6 mm 3 mps 722 mmHg 96%
    Show more